N417JT KFRG-KMDW

Flight info

Callsign N417JT
Flight time 2h 42m
Altitude 30000
Route DEEZZ5 CANDR J60 DJB ASHEN PANGG7
Aircraft SF50/L-BDGRSWY/LB2U2

Departure

Time 2026-05-04 15:07
Airport Republic Airport (KFRG)

Arrival

Time 2026-05-04 17:49
Airport Chicago Midway International Airport (KMDW)
Time Latitude Longitude Altitude Speed Heading
2026-05-04 14:53 40.72907 -73.41650 78 ft 0 kts 41°
2026-05-04 14:56 40.72906 -73.41650 78 ft 0 kts 41°
2026-05-04 15:01 40.72909 -73.41664 78 ft 4 kts 263°
2026-05-04 15:01 40.72926 -73.41701 78 ft 4 kts 339°
2026-05-04 15:01 40.72957 -73.41687 79 ft 6 kts 60°
2026-05-04 15:02 40.72941 -73.41631 75 ft 8 kts 138°
2026-05-04 15:02 40.72921 -73.41569 78 ft 8 kts 57°
2026-05-04 15:02 40.72982 -73.41550 76 ft 11 kts 359°
2026-05-04 15:02 40.73059 -73.41551 76 ft 11 kts 358°
2026-05-04 15:03 40.73136 -73.41554 76 ft 11 kts 358°
2026-05-04 15:03 40.73216 -73.41556 68 ft 12 kts
2026-05-04 15:03 40.73306 -73.41554 73 ft 14 kts 353°
2026-05-04 15:03 40.73402 -73.41558 70 ft 13 kts 358°
2026-05-04 15:04 40.73484 -73.41560 77 ft 10 kts
2026-05-04 15:04 40.73548 -73.41561 82 ft 8 kts 360°
2026-05-04 15:04 40.73603 -73.41562 80 ft 8 kts 359°
2026-05-04 15:04 40.73657 -73.41563 80 ft 8 kts 360°
2026-05-04 15:05 40.73710 -73.41563 81 ft 7 kts 13°
2026-05-04 15:05 40.73752 -73.41537 82 ft 6 kts 26°
2026-05-04 15:05 40.73785 -73.41513 85 ft 4 kts 39°
2026-05-04 15:05 40.73797 -73.41477 85 ft 6 kts 102°
2026-05-04 15:06 40.73694 -73.41456 81 ft 39 kts 178°
2026-05-04 15:06 40.73197 -73.41446 184 ft 90 kts 183°
2026-05-04 15:06 40.72543 -73.41364 617 ft 101 kts 180°
2026-05-04 15:07 40.71094 -73.41042 2000 ft 118 kts 151°
2026-05-04 15:07 40.70735 -73.39980 2619 ft 144 kts 103°
2026-05-04 15:07 40.71062 -73.38670 3158 ft 161 kts 48°
2026-05-04 15:07 40.72061 -73.38065 3521 ft 164 kts 347°
2026-05-04 15:08 40.73009 -73.38641 4174 ft 139 kts 318°
2026-05-04 15:08 40.73864 -73.39220 4827 ft 147 kts 321°
2026-05-04 15:08 40.74842 -73.39886 5102 ft 171 kts 322°
2026-05-04 15:08 40.75907 -73.40614 5729 ft 172 kts 322°
2026-05-04 15:09 40.76973 -73.41336 6388 ft 173 kts 323°
2026-05-04 15:09 40.77964 -73.42179 7003 ft 166 kts 309°
2026-05-04 15:09 40.78792 -73.43233 7623 ft 166 kts 307°
2026-05-04 15:10 40.80441 -73.45403 8837 ft 169 kts 308°
2026-05-04 15:10 40.81268 -73.46510 9446 ft 170 kts 308°
2026-05-04 15:10 40.82899 -73.48796 10578 ft 170 kts 299°
2026-05-04 15:11 40.83492 -73.50141 11082 ft 171 kts 297°
2026-05-04 15:11 40.84241 -73.51378 11611 ft 176 kts 310°
2026-05-04 15:11 40.84871 -73.52072 11959 ft 179 kts 315°
2026-05-04 15:11 40.85884 -73.53051 12492 ft 181 kts 317°
2026-05-04 15:12 40.86908 -73.54032 13017 ft 182 kts 317°
2026-05-04 15:12 40.87935 -73.55021 13559 ft 184 kts 317°
2026-05-04 15:12 40.88970 -73.56020 14052 ft 185 kts 317°
2026-05-04 15:12 40.90010 -73.57021 14534 ft 185 kts 317°
2026-05-04 15:13 40.91049 -73.58024 15018 ft 185 kts 317°
2026-05-04 15:13 40.92088 -73.59025 15484 ft 185 kts 317°
2026-05-04 15:13 40.93131 -73.60029 15940 ft 185 kts 317°
2026-05-04 15:13 40.94172 -73.61034 16390 ft 186 kts 317°
2026-05-04 15:14 40.95217 -73.62041 16841 ft 186 kts 317°
2026-05-04 15:14 40.96262 -73.63052 17287 ft 186 kts 317°
2026-05-04 15:14 40.97295 -73.64051 17721 ft 187 kts 317°
2026-05-04 15:14 40.98345 -73.65067 18158 ft 187 kts 316°
2026-05-04 15:15 40.99396 -73.66085 18550 ft 188 kts 317°
2026-05-04 15:15 41.00458 -73.67112 18916 ft 189 kts 317°
2026-05-04 15:15 41.01522 -73.68143 19278 ft 190 kts 317°
2026-05-04 15:16 41.03666 -73.70221 19986 ft 193 kts 318°
2026-05-04 15:16 41.04751 -73.71272 20332 ft 194 kts 318°
2026-05-04 15:16 41.06937 -73.73389 21047 ft 195 kts 318°
2026-05-04 15:17 41.08029 -73.74448 21424 ft 194 kts 319°
2026-05-04 15:17 41.10177 -73.76598 22164 ft 191 kts 313°
2026-05-04 15:17 41.11024 -73.77935 22541 ft 188 kts 302°
2026-05-04 15:18 41.11634 -73.79459 22918 ft 187 kts 292°
2026-05-04 15:18 41.11988 -73.81099 23288 ft 187 kts 283°
2026-05-04 15:18 41.12253 -73.82789 23635 ft 187 kts 284°
2026-05-04 15:19 41.12810 -73.86154 24289 ft 186 kts 284°
2026-05-04 15:19 41.13081 -73.87830 24609 ft 185 kts 284°
2026-05-04 15:19 41.13620 -73.91167 25243 ft 184 kts 284°
2026-05-04 15:20 41.13888 -73.92825 25563 ft 184 kts 284°
2026-05-04 15:20 41.14155 -73.94479 25880 ft 183 kts 284°
2026-05-04 15:20 41.14421 -73.96131 26199 ft 183 kts 284°
2026-05-04 15:20 41.14684 -73.97778 26510 ft 182 kts 285°
2026-05-04 15:21 41.14948 -73.99420 26828 ft 182 kts 285°
2026-05-04 15:21 41.15209 -74.01055 27122 ft 182 kts 286°
2026-05-04 15:21 41.15735 -74.04337 27712 ft 181 kts 286°
2026-05-04 15:22 41.15996 -74.05969 28012 ft 181 kts 286°
2026-05-04 15:22 41.16257 -74.07596 28323 ft 180 kts 286°
2026-05-04 15:22 41.16773 -74.10842 28893 ft 179 kts 287°
2026-05-04 15:23 41.16982 -74.12474 29189 ft 180 kts 282°
2026-05-04 15:23 41.17131 -74.14102 29476 ft 180 kts 283°
2026-05-04 15:23 41.17293 -74.15746 29792 ft 179 kts 283°
2026-05-04 15:23 41.17451 -74.17394 29974 ft 184 kts 283°
2026-05-04 15:24 41.17794 -74.20948 29989 ft 203 kts 282°
2026-05-04 15:24 41.18156 -74.24797 29980 ft 216 kts 282°
2026-05-04 15:25 41.18347 -74.26799 29983 ft 221 kts 282°
2026-05-04 15:25 41.18541 -74.28854 29981 ft 226 kts 282°
2026-05-04 15:25 41.18741 -74.30956 29981 ft 232 kts 282°
2026-05-04 15:26 41.19148 -74.35299 29984 ft 242 kts 281°
2026-05-04 15:26 41.19355 -74.37506 29969 ft 246 kts 282°
2026-05-04 15:26 41.19777 -74.42086 29975 ft 254 kts 279°
2026-05-04 15:27 41.19741 -74.44464 29971 ft 262 kts 269°
2026-05-04 15:27 41.18612 -74.49186 29975 ft 279 kts 249°
2026-05-04 15:28 41.16566 -74.53648 29979 ft 285 kts 246°
2026-05-04 15:28 41.15544 -74.55911 29980 ft 287 kts 246°
2026-05-04 15:28 41.13476 -74.60426 29967 ft 290 kts 246°
2026-05-04 15:29 41.12428 -74.62708 29968 ft 289 kts 246°
2026-05-04 15:30 41.08278 -74.71750 29966 ft 285 kts 246°
2026-05-04 15:30 41.05164 -74.78523 29969 ft 288 kts 246°
2026-05-04 15:31 41.03069 -74.83074 29971 ft 290 kts 246°
2026-05-04 15:31 41.02018 -74.85353 29976 ft 290 kts 246°
2026-05-04 15:32 40.98881 -74.92138 29965 ft 286 kts 246°
2026-05-04 15:32 40.96957 -74.96698 29971 ft 280 kts 256°
2026-05-04 15:33 40.95815 -75.01564 29974 ft 280 kts 259°
2026-05-04 15:34 40.94096 -75.08924 29973 ft 278 kts 259°
2026-05-04 15:34 40.93531 -75.11361 29971 ft 277 kts 259°
2026-05-04 15:34 40.92395 -75.16238 29969 ft 278 kts 259°
2026-05-04 15:35 40.91247 -75.21149 29966 ft 280 kts 259°
2026-05-04 15:35 40.90672 -75.23614 29964 ft 280 kts 259°
2026-05-04 15:35 40.90096 -75.26068 29970 ft 279 kts 259°
2026-05-04 15:36 40.88953 -75.30946 29965 ft 279 kts 259°
2026-05-04 15:36 40.88375 -75.33396 29969 ft 279 kts 259°
2026-05-04 15:36 40.87800 -75.35838 29967 ft 278 kts 259°
2026-05-04 15:37 40.87226 -75.38283 29971 ft 278 kts 259°
2026-05-04 15:37 40.86651 -75.40719 29972 ft 278 kts 259°
2026-05-04 15:37 40.86076 -75.43158 29959 ft 277 kts 259°
2026-05-04 15:37 40.85503 -75.45583 29970 ft 277 kts 259°
2026-05-04 15:38 40.84927 -75.48017 29969 ft 278 kts 259°
2026-05-04 15:38 40.84349 -75.50459 29971 ft 279 kts 259°
2026-05-04 15:38 40.83768 -75.52910 29975 ft 280 kts 259°
2026-05-04 15:38 40.83186 -75.55366 29973 ft 281 kts 259°
2026-05-04 15:39 40.82600 -75.57832 29981 ft 282 kts 259°
2026-05-04 15:39 40.82013 -75.60303 29981 ft 283 kts 259°
2026-05-04 15:39 40.80835 -75.65250 29983 ft 281 kts 259°
2026-05-04 15:40 40.80248 -75.67704 29978 ft 280 kts 259°
2026-05-04 15:40 40.79663 -75.70151 29978 ft 279 kts 259°
2026-05-04 15:40 40.79088 -75.72564 29978 ft 279 kts 259°
2026-05-04 15:40 40.78502 -75.75012 29976 ft 280 kts 259°
2026-05-04 15:41 40.77916 -75.77461 29979 ft 280 kts 259°
2026-05-04 15:41 40.77326 -75.79914 29984 ft 280 kts 259°
2026-05-04 15:41 40.76738 -75.82358 29983 ft 279 kts 259°
2026-05-04 15:41 40.76152 -75.84799 29982 ft 279 kts 259°
2026-05-04 15:42 40.75567 -75.87232 29981 ft 278 kts 259°
2026-05-04 15:42 40.74983 -75.89662 29980 ft 278 kts 259°
2026-05-04 15:42 40.74398 -75.92086 29979 ft 277 kts 259°
2026-05-04 15:42 40.73815 -75.94503 29981 ft 276 kts 259°
2026-05-04 15:43 40.73233 -75.96923 29984 ft 277 kts 259°
2026-05-04 15:43 40.72646 -75.99350 29984 ft 279 kts 258°
2026-05-04 15:43 40.72055 -76.01788 29987 ft 280 kts 258°
2026-05-04 15:43 40.71461 -76.04237 29987 ft 281 kts 258°
2026-05-04 15:44 40.70865 -76.06687 29983 ft 281 kts 258°
2026-05-04 15:44 40.70269 -76.09142 29980 ft 282 kts 258°
2026-05-04 15:44 40.69679 -76.11570 29980 ft 282 kts 258°
2026-05-04 15:44 40.69079 -76.14030 29979 ft 282 kts 258°
2026-05-04 15:45 40.68482 -76.16472 29985 ft 279 kts 258°
2026-05-04 15:45 40.67891 -76.18893 29987 ft 277 kts 258°
2026-05-04 15:45 40.67312 -76.21316 29984 ft 275 kts 261°
2026-05-04 15:45 40.66999 -76.23771 29979 ft 270 kts 271°
2026-05-04 15:46 40.67020 -76.26218 29982 ft 266 kts 279°
2026-05-04 15:46 40.67337 -76.28605 29984 ft 264 kts 285°
2026-05-04 15:46 40.67700 -76.30986 29984 ft 266 kts 284°
2026-05-04 15:46 40.68050 -76.33377 29985 ft 266 kts 284°
2026-05-04 15:47 40.68408 -76.35774 29988 ft 267 kts 284°
2026-05-04 15:47 40.68767 -76.38172 29987 ft 267 kts 284°
2026-05-04 15:47 40.69129 -76.40580 29989 ft 268 kts 284°
2026-05-04 15:47 40.69486 -76.42988 29991 ft 267 kts 284°
2026-05-04 15:48 40.69838 -76.45355 29983 ft 266 kts 285°
2026-05-04 15:48 40.70192 -76.47739 29984 ft 265 kts 284°
2026-05-04 15:48 40.70894 -76.52479 29983 ft 262 kts 284°
2026-05-04 15:49 40.71242 -76.54835 29980 ft 261 kts 284°
2026-05-04 15:49 40.71590 -76.57186 29978 ft 262 kts 284°
2026-05-04 15:49 40.71939 -76.59550 29978 ft 263 kts 284°
2026-05-04 15:49 40.72288 -76.61919 29979 ft 264 kts 284°
2026-05-04 15:50 40.72640 -76.64306 29975 ft 265 kts 284°
2026-05-04 15:50 40.72989 -76.66689 29977 ft 264 kts 284°
2026-05-04 15:50 40.73336 -76.69059 29971 ft 263 kts 284°
2026-05-04 15:50 40.73682 -76.71417 29970 ft 261 kts 284°
2026-05-04 15:51 40.74025 -76.73762 29975 ft 260 kts 284°
2026-05-04 15:51 40.74368 -76.76118 29974 ft 263 kts 284°
2026-05-04 15:51 40.74713 -76.78464 29973 ft 264 kts 284°
2026-05-04 15:51 40.75059 -76.80845 29967 ft 265 kts 284°
2026-05-04 15:52 40.75400 -76.83237 29971 ft 266 kts 284°
2026-05-04 15:52 40.75744 -76.85624 29970 ft 264 kts 284°
2026-05-04 15:52 40.76088 -76.87990 29964 ft 262 kts 283°
2026-05-04 15:52 40.76429 -76.90341 29964 ft 260 kts 283°
2026-05-04 15:53 40.76768 -76.92683 29965 ft 260 kts 283°
2026-05-04 15:53 40.77106 -76.95032 29967 ft 261 kts 283°
2026-05-04 15:53 40.77443 -76.97389 29966 ft 262 kts 283°
2026-05-04 15:53 40.77784 -76.99753 29968 ft 263 kts 283°
2026-05-04 15:54 40.78127 -77.02130 29966 ft 264 kts 283°
2026-05-04 15:54 40.78469 -77.04503 29966 ft 263 kts 283°
2026-05-04 15:54 40.78807 -77.06871 29964 ft 262 kts 283°
2026-05-04 15:54 40.79142 -77.09222 29959 ft 261 kts 283°
2026-05-04 15:55 40.79478 -77.11574 29958 ft 260 kts 283°
2026-05-04 15:55 40.79812 -77.13912 29955 ft 260 kts 283°
2026-05-04 15:55 40.80146 -77.16259 29956 ft 261 kts 283°
2026-05-04 15:55 40.80481 -77.18620 29954 ft 262 kts 283°
2026-05-04 15:56 40.80814 -77.20987 29956 ft 263 kts 283°
2026-05-04 15:56 40.81147 -77.23333 29934 ft 264 kts 283°
2026-05-04 15:56 40.81485 -77.25714 29953 ft 264 kts 283°
2026-05-04 15:56 40.81823 -77.28099 29953 ft 264 kts 283°
2026-05-04 15:57 40.82158 -77.30490 29958 ft 265 kts 283°
2026-05-04 15:57 40.82497 -77.32892 29961 ft 267 kts 283°
2026-05-04 15:57 40.82834 -77.35297 29961 ft 266 kts 283°
2026-05-04 15:57 40.83168 -77.37686 29962 ft 264 kts 283°
2026-05-04 15:58 40.83503 -77.40069 29958 ft 263 kts 283°
2026-05-04 15:58 40.83836 -77.42436 29956 ft 262 kts 283°
2026-05-04 15:58 40.84164 -77.44803 29955 ft 262 kts 283°
2026-05-04 15:58 40.84495 -77.47178 29956 ft 264 kts 283°
2026-05-04 15:59 40.84828 -77.49565 29957 ft 265 kts 283°
2026-05-04 15:59 40.85161 -77.51960 29957 ft 266 kts 283°
2026-05-04 15:59 40.85387 -77.53583 29952 ft 266 kts 283°
2026-05-04 15:59 40.85714 -77.55950 29951 ft 265 kts 283°
2026-05-04 16:00 40.86046 -77.58353 29951 ft 265 kts 283°
2026-05-04 16:00 40.86376 -77.60742 29952 ft 264 kts 283°
2026-05-04 16:00 40.86705 -77.63126 29950 ft 264 kts 283°
2026-05-04 16:00 40.87031 -77.65506 29950 ft 263 kts 283°
2026-05-04 16:01 40.87358 -77.67891 29959 ft 264 kts 283°
2026-05-04 16:01 40.87688 -77.70284 29958 ft 266 kts 283°
2026-05-04 16:01 40.88019 -77.72697 29963 ft 267 kts 283°
2026-05-04 16:01 40.88345 -77.75089 29971 ft 268 kts 283°
2026-05-04 16:02 40.88675 -77.77503 29955 ft 266 kts 283°
2026-05-04 16:02 40.89003 -77.79905 29954 ft 265 kts 283°
2026-05-04 16:02 40.89654 -77.84685 29939 ft 263 kts 283°
2026-05-04 16:03 40.89981 -77.87069 29937 ft 264 kts 283°
2026-05-04 16:03 40.90304 -77.89467 29945 ft 265 kts 282°
2026-05-04 16:03 40.90628 -77.91875 29939 ft 266 kts 283°
2026-05-04 16:03 40.90955 -77.94282 29942 ft 266 kts 282°
2026-05-04 16:04 40.91278 -77.96695 29923 ft 266 kts 283°
2026-05-04 16:04 40.91918 -78.01523 29933 ft 267 kts 282°
2026-05-04 16:04 40.92207 -78.03921 29927 ft 268 kts 281°
2026-05-04 16:05 40.92506 -78.06384 29948 ft 268 kts 282°
2026-05-04 16:05 40.92810 -78.08812 29935 ft 268 kts 282°
2026-05-04 16:05 40.93417 -78.13690 29931 ft 269 kts 282°
2026-05-04 16:06 40.93713 -78.16101 29923 ft 269 kts 282°
2026-05-04 16:06 40.94512 -78.22599 29915 ft 266 kts 282°
2026-05-04 16:07 40.94904 -78.25789 29911 ft 265 kts 282°
2026-05-04 16:07 40.95789 -78.33041 29917 ft 268 kts 282°
2026-05-04 16:08 40.96086 -78.35481 29910 ft 269 kts 282°
2026-05-04 16:08 40.96972 -78.42799 29912 ft 267 kts 282°
2026-05-04 16:09 40.97555 -78.47630 29907 ft 265 kts 282°
2026-05-04 16:09 40.98137 -78.52462 29918 ft 266 kts 281°
2026-05-04 16:10 40.98715 -78.57287 29915 ft 268 kts 281°
2026-05-04 16:11 40.99590 -78.64621 29921 ft 270 kts 281°
2026-05-04 16:11 40.99881 -78.67069 29917 ft 269 kts 281°
2026-05-04 16:12 41.00743 -78.74356 29913 ft 267 kts 281°
2026-05-04 16:12 41.01602 -78.81680 29896 ft 269 kts 281°
2026-05-04 16:13 41.02178 -78.86576 29893 ft 269 kts 281°
2026-05-04 16:13 41.02751 -78.91486 29908 ft 270 kts 281°
2026-05-04 16:14 41.03323 -78.96414 29909 ft 271 kts 281°
2026-05-04 16:14 41.03893 -79.01318 29904 ft 268 kts 281°
2026-05-04 16:15 41.04727 -79.08582 29897 ft 268 kts 281°
2026-05-04 16:16 41.05289 -79.13491 29904 ft 271 kts 281°
2026-05-04 16:16 41.06111 -79.20881 29908 ft 269 kts 281°
2026-05-04 16:17 41.06642 -79.25781 29909 ft 268 kts 281°
2026-05-04 16:18 41.07422 -79.33121 29912 ft 268 kts 280°
2026-05-04 16:18 41.07678 -79.35542 29910 ft 268 kts 280°
2026-05-04 16:19 41.08465 -79.42902 29907 ft 269 kts 280°
2026-05-04 16:19 41.08989 -79.47821 29907 ft 270 kts 280°
2026-05-04 16:20 41.09766 -79.55221 29909 ft 270 kts 280°
2026-05-04 16:20 41.10352 -79.60129 29906 ft 268 kts 285°
2026-05-04 16:21 41.11341 -79.67412 29905 ft 269 kts 279°
2026-05-04 16:22 41.11869 -79.72336 29895 ft 269 kts 281°
2026-05-04 16:22 41.12674 -79.79722 29883 ft 270 kts 281°
2026-05-04 16:23 41.13473 -79.87117 29894 ft 270 kts 280°
2026-05-04 16:24 41.14536 -79.96993 29893 ft 270 kts 280°
2026-05-04 16:25 41.15061 -80.01937 29895 ft 271 kts 280°
2026-05-04 16:26 41.16113 -80.11843 29900 ft 271 kts 280°
2026-05-04 16:26 41.16892 -80.19246 29898 ft 271 kts 280°
2026-05-04 16:27 41.17411 -80.24208 29895 ft 271 kts 280°
2026-05-04 16:28 41.18186 -80.31656 29892 ft 272 kts 280°
2026-05-04 16:28 41.18958 -80.39118 29892 ft 272 kts 280°
2026-05-04 16:29 41.19980 -80.49062 29887 ft 270 kts 280°
2026-05-04 16:30 41.20734 -80.56459 29888 ft 268 kts 280°
2026-05-04 16:31 41.21225 -80.61318 29878 ft 267 kts 280°
2026-05-04 16:31 41.21969 -80.68703 29865 ft 271 kts 280°
2026-05-04 16:32 41.22712 -80.76139 29867 ft 269 kts 280°
2026-05-04 16:33 41.23204 -80.81052 29864 ft 268 kts 280°
2026-05-04 16:33 41.23689 -80.85948 29864 ft 268 kts 279°
2026-05-04 16:34 41.24176 -80.90869 29865 ft 269 kts 279°
2026-05-04 16:34 41.24417 -80.93335 29859 ft 269 kts 279°
2026-05-04 16:35 41.25143 -81.00759 29854 ft 271 kts 279°
2026-05-04 16:35 41.25868 -81.08211 29856 ft 271 kts 279°
2026-05-04 16:36 41.26107 -81.10693 29854 ft 270 kts 279°
2026-05-04 16:36 41.26584 -81.15624 29854 ft 268 kts 279°
2026-05-04 16:37 41.27057 -81.20544 29853 ft 268 kts 279°
2026-05-04 16:37 41.27292 -81.23002 29855 ft 268 kts 279°
2026-05-04 16:37 41.27760 -81.27910 29853 ft 268 kts 279°
2026-05-04 16:38 41.28228 -81.32833 29855 ft 269 kts 279°
2026-05-04 16:39 41.28924 -81.40214 29849 ft 270 kts 279°
2026-05-04 16:39 41.29387 -81.45170 29844 ft 270 kts 279°
2026-05-04 16:40 41.29852 -81.50134 29842 ft 271 kts 279°
2026-05-04 16:40 41.30313 -81.55105 29835 ft 271 kts 279°
2026-05-04 16:41 41.30775 -81.60086 29815 ft 271 kts 279°
2026-05-04 16:41 41.31460 -81.67548 29814 ft 270 kts 279°
2026-05-04 16:42 41.32138 -81.74977 29809 ft 269 kts 279°
2026-05-04 16:43 41.32586 -81.79929 29806 ft 269 kts 279°
2026-05-04 16:43 41.32956 -81.84033 29806 ft 269 kts 279°
2026-05-04 16:43 41.33177 -81.86503 29806 ft 269 kts 279°
2026-05-04 16:44 41.34061 -81.96374 29805 ft 268 kts 279°
2026-05-04 16:45 41.34499 -82.01308 29815 ft 268 kts 279°
2026-05-04 16:46 41.35150 -82.08679 29814 ft 268 kts 278°
2026-05-04 16:46 41.35580 -82.13610 29814 ft 268 kts 278°
2026-05-04 16:47 41.35950 -82.18555 29814 ft 268 kts 277°
2026-05-04 16:47 41.36243 -82.23499 29813 ft 268 kts 277°
2026-05-04 16:48 41.36683 -82.30925 29813 ft 268 kts 277°
2026-05-04 16:48 41.36828 -82.33400 29813 ft 268 kts 277°
2026-05-04 16:49 41.37116 -82.38328 29813 ft 268 kts 277°
2026-05-04 16:49 41.37403 -82.43287 29813 ft 270 kts 276°
2026-05-04 16:50 41.37694 -82.48303 29810 ft 274 kts 276°
2026-05-04 16:50 41.37979 -82.53339 29805 ft 271 kts 276°
2026-05-04 16:51 41.38262 -82.58326 29798 ft 269 kts 276°
2026-05-04 16:51 41.38402 -82.60812 29796 ft 270 kts 276°
2026-05-04 16:51 41.38681 -82.65815 29797 ft 272 kts 276°
2026-05-04 16:52 41.38962 -82.70846 29793 ft 273 kts 276°
2026-05-04 16:52 41.39100 -82.73341 29793 ft 273 kts 276°
2026-05-04 16:53 41.39378 -82.78387 29794 ft 272 kts 276°
2026-05-04 16:53 41.39785 -82.85878 29788 ft 269 kts 276°
2026-05-04 16:54 41.39919 -82.88366 29788 ft 269 kts 276°
2026-05-04 16:55 41.40453 -82.98385 29784 ft 272 kts 276°
2026-05-04 16:55 41.40717 -83.03405 29781 ft 271 kts 276°
2026-05-04 16:56 41.40979 -83.08399 29789 ft 269 kts 275°
2026-05-04 16:56 41.41364 -83.15824 29784 ft 268 kts 275°
2026-05-04 16:57 41.41491 -83.18306 29783 ft 269 kts 275°
2026-05-04 16:57 41.41747 -83.23305 29785 ft 272 kts 275°
2026-05-04 16:58 41.42127 -83.30864 29776 ft 271 kts 275°
2026-05-04 16:58 41.42251 -83.33363 29776 ft 270 kts 275°
2026-05-04 16:59 41.42497 -83.38332 29775 ft 269 kts 275°
2026-05-04 17:00 41.42989 -83.48346 29771 ft 272 kts 275°
2026-05-04 17:00 41.43354 -83.55907 29770 ft 271 kts 275°
2026-05-04 17:01 41.43591 -83.60875 29770 ft 269 kts 275°
2026-05-04 17:01 41.43826 -83.65848 29758 ft 269 kts 275°
2026-05-04 17:02 41.44060 -83.70843 29759 ft 271 kts 275°
2026-05-04 17:02 41.44293 -83.75870 29760 ft 273 kts 275°
2026-05-04 17:03 41.44408 -83.78397 29756 ft 273 kts 275°
2026-05-04 17:03 41.44524 -83.80918 29757 ft 272 kts 275°
2026-05-04 17:03 41.44754 -83.85934 29754 ft 270 kts 275°
2026-05-04 17:04 41.44977 -83.90908 29753 ft 269 kts 275°
2026-05-04 17:04 41.45200 -83.95887 29755 ft 272 kts 275°
2026-05-04 17:05 41.45425 -84.00953 29754 ft 274 kts 275°
2026-05-04 17:05 41.45643 -84.05977 29753 ft 271 kts 275°
2026-05-04 17:06 41.45861 -84.10996 29756 ft 269 kts 275°
2026-05-04 17:06 41.45966 -84.13464 29756 ft 269 kts 275°
2026-05-04 17:07 41.46179 -84.18464 29755 ft 271 kts 274°
2026-05-04 17:07 41.46251 -84.20160 29755 ft 272 kts 274°
2026-05-04 17:07 41.46394 -84.23505 29759 ft 273 kts 274°
2026-05-04 17:07 41.46499 -84.26044 29759 ft 274 kts 274°
2026-05-04 17:08 41.46606 -84.28581 29764 ft 274 kts 274°
2026-05-04 17:08 41.46813 -84.33602 29760 ft 271 kts 274°
2026-05-04 17:08 41.46918 -84.36118 29760 ft 271 kts 275°
2026-05-04 17:09 41.47020 -84.38623 29757 ft 270 kts 274°
2026-05-04 17:09 41.47120 -84.41122 29757 ft 269 kts 274°
2026-05-04 17:09 41.47221 -84.43619 29756 ft 269 kts 274°
2026-05-04 17:10 41.47420 -84.48601 29759 ft 272 kts 274°
2026-05-04 17:10 41.47720 -84.56209 29760 ft 274 kts 274°
2026-05-04 17:11 41.47818 -84.58715 29761 ft 273 kts 274°
2026-05-04 17:11 41.47916 -84.61240 29762 ft 272 kts 274°
2026-05-04 17:11 41.48111 -84.66269 29760 ft 270 kts 274°
2026-05-04 17:12 41.48215 -84.68769 29758 ft 269 kts 275°
2026-05-04 17:12 41.48419 -84.73740 29756 ft 270 kts 274°
2026-05-04 17:13 41.48717 -84.81280 29747 ft 272 kts 274°
2026-05-04 17:14 41.49012 -84.88843 29738 ft 273 kts 274°
2026-05-04 17:14 41.49110 -84.91355 29738 ft 273 kts 274°
2026-05-04 17:14 41.49302 -84.96409 29736 ft 272 kts 274°
2026-05-04 17:15 41.49398 -84.98934 29734 ft 271 kts 274°
2026-05-04 17:15 41.49588 -85.03933 29733 ft 270 kts 274°
2026-05-04 17:16 41.49776 -85.08945 29735 ft 270 kts 274°
2026-05-04 17:16 41.50052 -85.16444 29736 ft 269 kts 274°
2026-05-04 17:17 41.50141 -85.18909 29733 ft 269 kts 274°
2026-05-04 17:17 41.50407 -85.26402 28467 ft 261 kts 274°
2026-05-04 17:18 41.50496 -85.28859 27923 ft 272 kts 274°
2026-05-04 17:18 41.50671 -85.33868 26869 ft 266 kts 274°
2026-05-04 17:19 41.50844 -85.38821 25848 ft 269 kts 273°
2026-05-04 17:19 41.51008 -85.43706 24861 ft 253 kts 273°
2026-05-04 17:20 41.51176 -85.48565 23953 ft 275 kts 273°
2026-05-04 17:20 41.51345 -85.53670 23191 ft 275 kts 272°
2026-05-04 17:20 41.51429 -85.56220 22799 ft 274 kts 272°
2026-05-04 17:21 41.51596 -85.61288 22062 ft 277 kts 272°
2026-05-04 17:21 41.51709 -85.66454 21315 ft 279 kts 271°
2026-05-04 17:22 41.51758 -85.69050 20939 ft 278 kts 271°
2026-05-04 17:22 41.51815 -85.71630 20565 ft 277 kts 271°
2026-05-04 17:23 41.51974 -85.79326 19452 ft 279 kts 271°
2026-05-04 17:23 41.52025 -85.81920 19077 ft 280 kts 271°
2026-05-04 17:23 41.52129 -85.87141 18322 ft 280 kts 271°
2026-05-04 17:24 41.52178 -85.89697 18185 ft 277 kts 270°
2026-05-04 17:24 41.52326 -85.97484 17095 ft 280 kts 270°
2026-05-04 17:25 41.52373 -86.00094 16719 ft 282 kts 270°
2026-05-04 17:25 41.52468 -86.05301 15964 ft 275 kts 270°
2026-05-04 17:26 41.52489 -86.10348 15219 ft 274 kts 268°
2026-05-04 17:26 41.52459 -86.17904 14128 ft 268 kts 269°
2026-05-04 17:27 41.52436 -86.22860 13403 ft 265 kts 268°
2026-05-04 17:27 41.52412 -86.27728 12689 ft 262 kts 268°
2026-05-04 17:28 41.52385 -86.32531 11994 ft 258 kts 268°
2026-05-04 17:29 41.52341 -86.39663 11036 ft 254 kts 268°
2026-05-04 17:29 41.52294 -86.46739 11018 ft 255 kts 268°
2026-05-04 17:30 41.52242 -86.53798 10455 ft 249 kts 268°
2026-05-04 17:31 41.52206 -86.58445 10009 ft 250 kts 268°
2026-05-04 17:31 41.52150 -86.65347 10004 ft 247 kts 268°
2026-05-04 17:32 41.52117 -86.69143 10004 ft 245 kts 268°
2026-05-04 17:33 41.52056 -86.75976 10004 ft 245 kts 268°
2026-05-04 17:33 41.52034 -86.78218 10003 ft 245 kts 268°
2026-05-04 17:34 41.51967 -86.85028 10005 ft 244 kts 268°
2026-05-04 17:34 41.51944 -86.87318 9843 ft 248 kts 268°
2026-05-04 17:35 41.51872 -86.94156 8891 ft 244 kts 268°
2026-05-04 17:35 41.51816 -86.98691 8251 ft 244 kts 267°
2026-05-04 17:35 41.51790 -87.00960 7933 ft 244 kts 267°
2026-05-04 17:36 41.51764 -87.03210 7613 ft 245 kts 268°
2026-05-04 17:36 41.51738 -87.05465 7294 ft 241 kts 267°
2026-05-04 17:36 41.51711 -87.07703 6980 ft 241 kts 267°
2026-05-04 17:36 41.51829 -87.09941 6660 ft 245 kts 277°
2026-05-04 17:37 41.52294 -87.12151 6337 ft 247 kts 287°
2026-05-04 17:37 41.53064 -87.14168 6042 ft 248 kts 297°
2026-05-04 17:37 41.54138 -87.15972 6009 ft 251 kts 308°
2026-05-04 17:37 41.55496 -87.17495 6008 ft 258 kts 319°
2026-05-04 17:38 41.57105 -87.18641 5989 ft 264 kts 332°
2026-05-04 17:38 41.58827 -87.19479 5983 ft 263 kts 334°
2026-05-04 17:38 41.60515 -87.20328 5986 ft 263 kts 332°
2026-05-04 17:38 41.62229 -87.21200 5989 ft 263 kts 333°
2026-05-04 17:39 41.65670 -87.22918 5985 ft 263 kts 333°
2026-05-04 17:39 41.67393 -87.23780 5983 ft 263 kts 333°
2026-05-04 17:39 41.69090 -87.24632 5983 ft 264 kts 332°
2026-05-04 17:40 41.70813 -87.25498 5978 ft 264 kts 333°
2026-05-04 17:40 41.72535 -87.26362 5981 ft 263 kts 333°
2026-05-04 17:40 41.74251 -87.27226 5981 ft 263 kts 333°
2026-05-04 17:40 41.75959 -87.28117 5971 ft 262 kts 330°
2026-05-04 17:41 41.77601 -87.29140 5714 ft 265 kts 328°
2026-05-04 17:41 41.79276 -87.30196 5377 ft 265 kts 329°
2026-05-04 17:41 41.80943 -87.31253 5030 ft 263 kts 326°
2026-05-04 17:41 41.82411 -87.32663 4684 ft 257 kts 312°
2026-05-04 17:42 41.83579 -87.34433 4334 ft 251 kts 300°
2026-05-04 17:42 41.84413 -87.36460 4001 ft 246 kts 288°
2026-05-04 17:42 41.84898 -87.38650 3674 ft 243 kts 277°
2026-05-04 17:42 41.85030 -87.40864 3355 ft 239 kts 266°
2026-05-04 17:43 41.85013 -87.43088 3043 ft 239 kts 266°
2026-05-04 17:43 41.85023 -87.45257 2972 ft 221 kts 266°
2026-05-04 17:43 41.85026 -87.47238 2967 ft 206 kts 265°
2026-05-04 17:43 41.85018 -87.49175 2963 ft 208 kts 266°
2026-05-04 17:44 41.85018 -87.51086 2964 ft 206 kts 266°
2026-05-04 17:44 41.85015 -87.53007 2962 ft 204 kts 266°
2026-05-04 17:44 41.85014 -87.54904 2961 ft 202 kts 265°
2026-05-04 17:44 41.84940 -87.56757 2963 ft 195 kts 262°
2026-05-04 17:45 41.84862 -87.58486 2959 ft 174 kts 262°
2026-05-04 17:45 41.84794 -87.60014 2959 ft 162 kts 262°
2026-05-04 17:45 41.84720 -87.61528 2829 ft 165 kts 261°
2026-05-04 17:45 41.84638 -87.63070 2608 ft 164 kts 262°
2026-05-04 17:46 41.84566 -87.64501 2401 ft 140 kts 255°
2026-05-04 17:46 41.84254 -87.65658 2217 ft 135 kts 242°
2026-05-04 17:46 41.83852 -87.66864 2045 ft 147 kts 244°
2026-05-04 17:46 41.83461 -87.68093 1841 ft 137 kts 241°
2026-05-04 17:47 41.82955 -87.69081 1674 ft 119 kts 231°
2026-05-04 17:47 41.82511 -87.69952 1523 ft 105 kts 232°
2026-05-04 17:47 41.82098 -87.70644 1462 ft 89 kts 222°
2026-05-04 17:47 41.81636 -87.71189 1405 ft 87 kts 224°
2026-05-04 17:48 41.81207 -87.71766 1368 ft 90 kts 224°
2026-05-04 17:48 41.80741 -87.72352 1252 ft 92 kts 225°
2026-05-04 17:48 41.80288 -87.72933 1067 ft 85 kts 225°
2026-05-04 17:48 41.79878 -87.73440 924 ft 80 kts 226°
2026-05-04 17:49 41.79487 -87.73946 766 ft 71 kts 220°
2026-05-04 17:49 41.79145 -87.74375 657 ft 64 kts 219°
2026-05-04 17:49 41.78850 -87.74745 627 ft 48 kts 218°
2026-05-04 17:49 41.78650 -87.74999 625 ft 33 kts 223°
2026-05-04 17:50 41.78503 -87.75187 625 ft 24 kts 223°
2026-05-04 17:50 41.78401 -87.75317 625 ft 17 kts 221°
2026-05-04 17:50 41.78340 -87.75333 624 ft 9 kts 131°
2026-05-04 17:50 41.78296 -87.75269 623 ft 10 kts 133°
2026-05-04 17:51 41.78251 -87.75204 623 ft 10 kts 133°
2026-05-04 17:51 41.78203 -87.75136 623 ft 10 kts 134°
2026-05-04 17:51 41.78156 -87.75081 623 ft 6 kts 191°
2026-05-04 17:51 41.78120 -87.75122 626 ft 7 kts 203°
2026-05-04 17:52 41.78098 -87.75157 623 ft 4 kts
2026-05-04 17:52 41.78103 -87.75156 627 ft 2 kts 358°
2026-05-04 17:52 41.78108 -87.75156 625 ft 0 kts 358°